Tracking 29892 objects as of 21-Nov-2024
HD Live streaming from Space Station
objects crossing your sky now

STARLINK-3689

Track STARLINK-3689 now!
10-day predictions
STARLINK-3689 is classified as:


NORAD ID: 51961
Int'l Code: 2022-025F
Perigee: 544.2 km
Apogee: 546.0 km
Inclination: 53.1 °
Period: 95.4 minutes
Semi major axis: 6916 km
RCS: Unknown
Launch date: March 9, 2022
Source: United States (US)
Launch site: AIR FORCE EASTERN TEST RANGE (AFETR)
Your satellite tracking list
Your tracking list is empty




NASA's NSSDC Master Catalog

Two Line Element Set (TLE):
1 51961U 22025F   24324.40164403  .00000328  00000-0  38167-4 0  9992
2 51961  53.0557 355.8574 0001353  90.1788 269.9358 15.09427872150510
Source of the keplerian elements: AFSPC